This demonstration page uses our WeatherBlox Daily Observations layout. Learn more.

39.29038, -76.61219

Hourly Observations for April 30, 2016

Temp ( °F °C ) Dew Point ( °F °C ) Humidity (%) Winds ( mph kmh ) Pressure ( in mb ) Visibility ( mi km ) Precip ( " mm )
12:54 am 00:54 undefined 51 10.6 46 7.8 83 83 undefined N/A 30.14 1021 N/A 0 0
1:54 am 01:54 undefined 50 10 46 7.8 86 86 undefined N/A 30.14 1021 N/A 0 0
2:54 am 02:54 undefined 50 10 46 7.8 86 86 undefined N/A 30.13 1020 N/A 0 0
3:54 am 03:54 undefined 50 10 45 7.2 83 83 undefined N/A 30.14 1021 N/A 0 0
4:54 am 04:54 undefined 50 10 44 6.7 80 80 undefined N/A 30.15 1021 N/A 0 0
5:54 am 05:54 undefined 50 10 44 6.7 80 80 undefined N/A 30.17 1022 N/A 0 0
6:54 am 06:54 undefined 50 10 44 6.7 80 80 undefined N/A 30.19 1022 N/A 0 0
7:54 am 07:54 undefined 50 10 44 6.7 80 80 undefined N/A 30.2 1023 N/A 0 0
8:54 am 08:54 undefined 50 10 43 6.1 77 77 undefined N/A 30.21 1023 N/A 0 0
9:54 am 09:54 undefined 53 11.7 44 6.7 72 72 undefined N/A 30.21 1023 N/A 0 0
10:54 am 10:54 undefined 54 12.2 45 7.2 72 72 undefined N/A 30.21 1023 N/A 0 0
11:54 am 11:54 undefined 55 12.8 45 7.2 69 69 undefined N/A 30.21 1023 N/A 0 0
12:54 pm 12:54 undefined 56 13.3 44 6.7 65 65 undefined N/A 30.21 1023 N/A 0 0
1:54 pm 13:54 undefined 58 14.4 44 6.7 60 60 undefined N/A 30.22 1023 N/A 0 0
2:54 pm 14:54 undefined 59 15 45 7.2 60 60 undefined N/A 30.2 1023 N/A 0 0
3:54 pm 15:54 undefined 59 15 44 6.7 58 58 undefined N/A 30.19 1022 N/A 0 0
4:54 pm 16:54 undefined 59 15 44 6.7 58 58 undefined N/A 30.19 1022 N/A 0 0
5:54 pm 17:54 undefined 59 15 45 7.2 60 60 undefined N/A 30.21 1023 N/A 0 0
6:54 pm 18:54 undefined 58 14.4 46 7.8 65 65 undefined N/A 30.2 1023 N/A 0 0
7:54 pm 19:54 undefined 58 14.4 45 7.2 62 62 undefined N/A 30.2 1023 N/A 0 0
8:54 pm 20:54 undefined 57 13.9 46 7.8 67 67 undefined N/A 30.21 1023 N/A 0 0
9:54 pm 21:54 undefined 56 13.3 48 8.9 75 75 undefined N/A 30.22 1023 N/A 0 0
10:54 pm 22:54 undefined 56 13.3 49 9.4 77 77 undefined N/A 30.21 1023 N/A 0 0
11:54 pm 23:54 undefined 54 12.2 47 8.3 77 77 undefined N/A 30.21 1023 N/A 0 0

Powered by AerisWeather